Weather History for Flagstaff, AZ

Change the Weather History Date:

Tuesday, March 26, 2013

  Actual Average Record
Temperature  
Mean Temperature 42 °F 39 °F  
Max Temperature 59 °F 53 °F 73 °F (1988)
Min Temperature 25 °F 25 °F -8 °F (1902)
Degree Days  
Heating Degree Days 23 26  
Month to date heating degree days 668 738  
Since 1 July heating degree days 5536 5577  
Cooling Degree Days 0 0  
Month to date cooling degree days 0 0  
Year to date cooling degree days 0 0  
Moisture  
Dew Point 16 °F    
Average Humidity 41    
Maximum Humidity 63    
Minimum Humidity 19    
Precipitation  
Precipitation 0.00 in 0.06 in 1.10 in (1989)
Month to date precipitation 1.38 1.85  
Year to date precipitation 4.88 6.06  
Snow  
Snow 0.00 in 0.50 in 14.90 in (1991)
Month to date snowfall 15.2 18.4  
Since 1 July snowfall 68.3 91.6  
Snow Depth 0.00 in    
Sea Level Pressure  
Sea Level Pressure 29.95 in    
Wind  
Wind Speed 10 mph (SW)    
Max Wind Speed 28 mph    
Max Gust Speed 35 mph    
Visibility 10 miles    
Events      
T = Trace of Precipitation, MM = Missing Value Source: NWS Daily Summary

Daily Weather History Graph

Daily Weather History Graph

Search for Another Location

Airport:

Trip Planner

Search our weather history database for the weather conditions in past years. The results will help you decide how hot, cold, wet, or windy it might be!

Date:

Astronomy

Mar. 26, 2013 Rise Set
Actual Time 6:21 AM MST 6:43 PM MST
Civil Twilight 5:56 AM MST 7:08 PM MST
Nautical Twilight 5:26 AM MST 7:38 PM MST
Astronomical Twilight 4:56 AM MST 8:09 PM MST
Moon 6:23 PM MST (3/26) 5:39 AM MST (3/26)
Length of Visible Light 13h 12m
Length of Day
12h 22m
Full, 100% of the Moon is Illuminated
Mar 26
Full
Mar 27
Full
Apr 2
Last Quarter
Apr 10
New
Apr 18
First Quarter

Hourly Weather History & Observations

Time (MST) Temp. Windchill Dew Point Humidity Pressure Visibility Wind Dir Wind Speed Gust Speed Precip Events Conditions
12:57 AM 30.0 °F - 16.0 °F 56% 30.01 in 10.0 mi Calm Calm - N/A   Clear
1:57 AM 30.0 °F - 17.1 °F 59% 29.99 in 10.0 mi Calm Calm - N/A   Clear
2:57 AM 27.0 °F - 16.0 °F 63% 29.97 in 10.0 mi Calm Calm - N/A   Clear
3:57 AM 27.0 °F - 16.0 °F 63% 29.95 in 10.0 mi Calm Calm - N/A   Clear
4:57 AM 26.1 °F - 16.0 °F 66% 29.96 in 10.0 mi Calm Calm - N/A   Clear
5:57 AM 27.0 °F - 15.1 °F 61% 29.97 in 10.0 mi Calm Calm - N/A   Clear
6:57 AM 27.0 °F - 16.0 °F 63% 30.02 in 10.0 mi Calm Calm - N/A   Clear
7:57 AM 34.0 °F - 21.0 °F 59% 30.02 in 10.0 mi Calm Calm - N/A   Clear
8:57 AM 46.0 °F 41.4 °F 17.1 °F 31% 29.98 in 10.0 mi SSW 9.2 mph - N/A   Clear
9:57 AM 52.0 °F - 14.0 °F 22% 29.97 in 10.0 mi SW 20.7 mph - N/A   Clear
10:57 AM 52.0 °F - 14.0 °F 22% 29.99 in 10.0 mi SW 18.4 mph 25.3 mph N/A   Clear
11:57 AM 53.1 °F - 14.0 °F 21% 29.97 in 10.0 mi SW 19.6 mph 25.3 mph N/A   Clear
12:57 PM 55.9 °F - 15.1 °F 20% 29.94 in 10.0 mi SW 19.6 mph 28.8 mph N/A   Clear
1:57 PM 55.9 °F - 16.0 °F 21% 29.92 in 10.0 mi WSW 16.1 mph 28.8 mph N/A   Clear
2:57 PM 57.9 °F - 15.1 °F 19% 29.90 in 10.0 mi SW 25.3 mph 33.4 mph N/A   Clear
3:57 PM 57.0 °F - 15.1 °F 19% 29.89 in 10.0 mi SSW 20.7 mph 32.2 mph N/A   Clear
4:57 PM 55.0 °F - 15.1 °F 21% 29.89 in 10.0 mi SW 24.2 mph 34.5 mph N/A   Clear
5:57 PM 54.0 °F - 16.0 °F 22% 29.89 in 10.0 mi SW 25.3 mph 34.5 mph N/A   Clear
6:57 PM 51.1 °F - 18.0 °F 27% 29.91 in 10.0 mi SW 17.3 mph 25.3 mph N/A   Clear
7:57 PM 48.9 °F - 16.0 °F 27% 29.91 in 10.0 mi WSW 11.5 mph - N/A   Clear
8:57 PM 44.1 °F 41.5 °F 16.0 °F 32% 29.90 in 10.0 mi SW 4.6 mph - N/A   Clear
9:57 PM 37.0 °F - 16.0 °F 42% 29.91 in 10.0 mi Calm Calm - N/A   Clear
10:57 PM 33.1 °F - 16.0 °F 50% 29.92 in 10.0 mi Calm Calm - N/A   Clear
11:57 PM 32.0 °F - 16.0 °F 52% 29.92 in 10.0 mi Calm Calm - N/A   Clear